Weather History for KMTP - May, 2014

Change the Weather History Date:

Sunday, May 25, 2014

  Actual Average (KHTO) Record (KHTO)
Temperature  
Mean Temperature 59 °F -  
Max Temperature 64 °F 66 °F 87 °F (1991)
Min Temperature 54 °F 50 °F 37 °F (1967)
Degree Days  
Heating Degree Days 6    
Growing Degree Days 9 (Base 50)    
Moisture  
Dew Point 53 °F    
Average Humidity 86    
Maximum Humidity 100    
Minimum Humidity 70    
Precipitation  
Precipitation 0.06 in - - ()
Sea Level Pressure  
Sea Level Pressure 30.08 in    
Wind  
Wind Speed 6 mph (WNW)    
Max Wind Speed 9 mph    
Max Gust Speed -    
Averages and records for this station are not official NWS values.
T = Trace of Precipitation, MM = Missing Value Source: NWS Daily Summary

Daily Weather History Graph

Daily Weather History Graph

Search for Another Location

Airport or City:

Trip Planner

Search our weather history database for the weather conditions in past years. The results will help you decide how hot, cold, wet, or windy it might be!

Date:

Astronomy

May. 25, 2014 Rise Set
Actual Time 5:21 AM EDT 8:08 PM EDT
Civil Twilight 4:49 AM EDT 8:40 PM EDT
Nautical Twilight 4:08 AM EDT 9:21 PM EDT
Astronomical Twilight 3:22 AM EDT 10:08 PM EDT
Moon 3:26 AM EDT (5/25) 5:04 PM EDT (5/25)
Length of Visible Light 15h 51m
Length of Day
14h 46m
Waning Crescent, 10% of the Moon is Illuminated
May 25
Waning Crescent
May 28
New
Jun 5
First Quarter
Jun 13
Full
Jun 19
Last Quarter

Hourly Weather History & Observations

Time (EDT) Temp. Dew Point Humidity Pressure Visibility Wind Dir Wind Speed Gust Speed Precip Events Conditions
12:54 AM 57.0 °F 51.1 °F 81% 30.07 in - WSW 5.8 mph - N/A   Unknown
1:54 AM 57.9 °F 50.0 °F 75% 30.05 in - WSW 8.1 mph - N/A   Unknown
2:54 AM 57.0 °F 51.1 °F 81% 30.04 in - West 8.1 mph - N/A   Unknown
3:54 AM 57.0 °F 52.0 °F 83% 30.04 in - West 5.8 mph - N/A   Unknown
4:54 AM 55.0 °F 52.0 °F 89% 30.04 in - West 5.8 mph - N/A   Unknown
5:54 AM 54.0 °F 53.1 °F 97% 30.06 in - Variable 4.6 mph - N/A   Unknown
6:54 AM 54.0 °F 53.1 °F 97% 30.07 in - NW 5.8 mph - N/A   Unknown
7:54 AM 54.0 °F 54.0 °F 100% 30.09 in - WNW 5.8 mph - N/A   Unknown
8:54 AM 59.0 °F 53.1 °F 81% 30.10 in - NW 5.8 mph - N/A   Unknown
9:54 AM 59.0 °F 53.1 °F 81% 30.11 in - North 5.8 mph - N/A   Unknown
11:54 AM 59.0 °F 52.0 °F 78% 30.12 in - ENE 9.2 mph - N/A   Unknown
12:54 PM 64.0 °F 54.0 °F 70% 30.11 in - NE 5.8 mph - N/A   Unknown
1:54 PM 64.9 °F 55.0 °F 70% 30.10 in - Variable 4.6 mph - N/A   Unknown
2:54 PM 61.0 °F 53.1 °F 75% 30.09 in - Variable 5.8 mph - N/A   Unknown
3:54 PM 57.0 °F 52.0 °F 83% 30.09 in - SSE 5.8 mph - N/A   Unknown
4:54 PM 55.0 °F 52.0 °F 89% 30.11 in - Variable 3.5 mph - N/A   Unknown
5:54 PM 57.9 °F 55.9 °F 93% 30.07 in - Variable 3.5 mph - 0.06 in   Unknown
6:54 PM 55.0 °F 54.0 °F 96% 30.06 in - South 5.8 mph - N/A   Unknown
7:54 PM 55.0 °F 53.1 °F 93% 30.08 in - Variable 4.6 mph - N/A   Unknown
8:54 PM 55.0 °F 54.0 °F 96% 30.08 in - Variable 4.6 mph - N/A   Unknown
9:54 PM 55.9 °F 55.0 °F 97% 30.09 in - Variable 3.5 mph - N/A   Unknown
10:54 PM 57.0 °F 55.0 °F 93% 30.08 in - Variable 3.5 mph - N/A   Unknown
11:54 PM 57.0 °F 53.1 °F 87% 30.07 in - Calm Calm - N/A   Unknown